Temperature
12 12 12 12 12 12 12 12 12 11 11 11 11 12 11 11 11 11 11 11 11 11 11 11 11 11 11 11 11 11 11 11 11 11 11 11 11 11
12 12 12 12 12 12 12 12 12 12 11 11 11 11 11 11 11 11 11 11 11 11 11 11 11 11 11 11 11 11 11 11 11 11 11 10 10 10
12 12 12 12 12 12 12 12 12 12 12 11 11 11 11 11 11 11 11 11 11 11 11 11 11 11 11 11 11 11 11 11 11 10 10 10 10 10
12 12 12 11 11 11 12 12 12 12 11 11 11 11 11 11 11 11 11 10 10 10 11 10 10 10 10 10 10 10 11 10 10 10 10 10 10 10
12 12 11 11 11 11 11 11 11 11 11 11 11 11 11 11 11 11 10 10 10 10 10 10 10 10 10 10 10 10 10 10 10 10 10 10 10 10
11 11 11 11 11 11 11 11 11 11 11 11 11 11 10 10 10 10 10 10 10 10 10 10 10 10 10 10 10 10 10 10 10 10 10 10 9 9
11 11 11 11 11 11 11 11 11 11 11 11 10 10 10 10 10 10 10 10 10 10 10 10 9 9 9 9 9 9 9 9 9 9 9 9 9 9
11 11 11 11 10 10 10 10 10 10 10 10 10 10 10 10 10 10 10 10 9 9 9 9 9 9 9 9 9 9 9 9 9 9 9 9 9 9
10 10 10 10 10 10 10 10 10 10 10 10 10 10 10 10 10 10 9 9 9 9 9 9 9 9 9 9 9 8 8 8 8 8 8 8 8 8
10 10 10 10 10 10 10 10 10 10 10 10 10 10 10 10 9 9 9 9 9 9 8 8 8 8 8 8 8 8 8 8 8 8 8 8 8 8
10 9 9 9 9 9 9 9 9 9 9 9 9 9 9 9 9 9 9 8 8 9 8 8 8 8 8 8 8 8 7 7 7 7 7 7 7 7
9 9 9 9 9 9 8 9 9 9 9 9 9 9 9 9 8 8 8 8 8 8 8 8 8 7 7 7 7 7 7 7 7 7 7 7 7 7
9 8 8 8 8 8 8 8 8 8 8 8 8 8 8 8 8 8 8 8 8 8 8 7 7 7 7 7 7 7 7 6 6 6 6 6 6 6
8 8 8 8 8 8 7 7 7 7 7 8 8 8 8 8 8 8 8 8 7 7 7 7 7 7 7 6 6 6 6 6 6 6 6 6 6 6
7 7 7 7 7 7 7 7 7 7 7 7 7 7 7 7 7 7 7 7 7 7 7 7 7 6 6 6 6 6 6 6 6 6 6 6 6 5
7 7 6 6 7 7 7 6 6 6 6 6 7 7 7 7 7 7 7 7 7 7 6 6 6 6 6 6 6 6 6 5 5 5 5 5 5 5
6 6 6 6 6 6 6 6 6 6 6 6 6 6 6 6 6 6 6 6 6 6 6 6 6 6 6 5 5 5 5 5 5 5 5 5 5 5
6 6 6 5 5 5 5 5 5 5 5 5 5 5 6 6 6 6 6 5 5 5 5 5 5 5 5 5 5 5 5 5 5 5 4 4 5 4
5 5 5 5 5 5 5 5 5 5 5 5 5 5 5 5 5 5 5 5 5 5 5 5 5 4 4 4 5 5 4 4 4 4 4 4 4 4
5 5 5 5 4 4 4 4 4 4 5 5 5 5 5 5 5 5 4 4 4 4 4 4 4 4 4 4 4 4 4 4 4 4 4 4 4 3
4 4 4 4 4 4 4 4 4 4 4 4 4 4 4 4 4 4 4 4 4 4 4 4 4 4 3 3 3 4 4 3 3 3 3 3 3 3
4 4 4 4 3 3 3 3 3 4 4 4 4 4 4 4 4 4 4 4 3 3 3 3 3 3 3 3 3 3 3 3 3 3 2 2 2 2
3 3 3 3 3 3 3 3 3 3 3 3 4 4 4 4 4 4 4 3 3 3 3 3 3 3 2 2 2 2 2 2 2 2 2 2 2 2
Wind_Speed
2 2 2 2 2 2 3 3 4 2 2 3 2 2 3 4 5 5 5 5 5 5 4 4 3 2 1 1 1 2 2 2 2 2 2 2 1 1
2 2 1 1 1 1 2 2 3 3 3 3 3 2 2 3 4 5 5 6 6 5 5 5 4 3 2 2 2 2 3 3 2 2 3 2 2 1
1 2 2 2 2 1 1 2 2 3 3 3 2 1 1 2 2 3 4 4 5 6 6 5 5 5 4 3 3 2 2 3 3 3 3 3 3 3
2 2 3 2 2 2 2 2 2 3 3 3 2 1 2 2 2 2 2 3 5 5 5 5 5 5 4 4 3 3 3 3 4 4 4 3 3 3
3 3 3 3 3 2 3 3 2 2 2 3 2 1 2 1 1 1 1 1 3 4 5 5 5 5 5 4 4 4 3 4 4 4 4 4 4 3
3 3 3 4 4 4 3 4 3 2 2 2 2 2 2 1 1 1 1 1 2 2 3 4 5 5 5 5 4 4 4 4 4 4 4 4 4 4
2 3 3 3 4 3 3 3 4 3 2 2 2 2 2 2 2 2 2 1 2 2 1 2 2 3 4 5 5 5 5 4 4 3 3 3 4 4
3 2 3 2 3 3 3 3 5 5 4 3 3 4 4 4 3 3 2 1 2 2 2 3 2 2 3 5 5 5 4 4 4 4 4 4 4 4
3 3 2 2 2 2 3 3 4 5 6 5 4 5 5 5 4 3 3 3 4 3 3 2 2 3 3 5 6 6 5 4 4 4 3 3 4 4
3 4 3 3 3 2 2 1 2 3 4 4 5 5 4 4 5 5 5 3 1 1 3 2 2 2 2 3 5 5 5 5 5 4 3 3 3 3
3 2 2 3 3 2 2 2 2 3 3 4 5 5 4 4 4 2 3 3 2 2 2 2 2 1 1 1 3 4 4 4 3 4 4 4 3 3
2 2 3 3 4 3 3 3 3 3 2 2 2 2 2 3 5 4 5 4 2 2 3 3 2 1 1 2 1 1 2 3 3 4 4 5 3 1
2 2 3 4 4 4 3 4 5 3 2 2 1 1 1 1 2 3 4 4 4 3 3 3 2 2 2 1 1 1 1 1 1 2 3 3 4 3
3 3 3 4 4 4 3 4 4 2 1 1 1 2 2 2 2 2 3 3 3 4 4 4 3 4 3 2 2 1 1 1 1 1 1 1 2 2
3 4 4 4 3 3 3 3 2 2 2 2 2 3 3 3 1 1 1 1 1 0 3 4 3 3 3 3 3 2 1 2 1 1 1 1 1 1
2 2 3 2 2 2 2 2 2 2 3 3 3 3 1 1 1 1 1 1 0 1 1 1 4 4 3 3 3 3 2 2 2 2 1 1 2 2
1 0 0 1 1 2 1 2 2 2 2 2 2 1 1 1 1 1 1 1 1 1 1 1 1 1 3 4 3 3 3 2 2 2 2 2 2 3
1 2 2 2 3 3 3 3 2 3 3 3 3 3 3 2 2 1 1 2 2 2 2 1 1 1 1 1 2 3 2 2 2 2 2 2 3 3
2 3 3 3 3 3 3 3 3 4 3 3 3 3 3 3 3 2 2 2 2 2 2 2 2 2 2 2 3 2 3 2 2 2 2 3 4 4
2 3 3 3 3 3 3 3 3 3 3 3 3 4 3 3 3 3 3 4 3 2 2 2 3 3 4 4 3 2 3 2 2 2 2 2 2 3
3 3 3 3 3 3 4 4 4 4 4 4 4 4 4 4 4 4 4 4 3 3 4 4 4 4 1 1 1 2 2 3 3 2 2 1 1 1
3 3 3 3 3 3 3 3 3 4 4 4 4 4 4 4 4 5 4 4 4 4 4 3 2 2 2 2 3 3 2 2 2 2 4 4 2 3
4 3 3 3 3 3 3 3 4 4 4 4 4 4 4 4 4 4 5 4 4 4 3 3 2 2 2 3 3 3 3 2 1 1 2 4 5 6
Wind_Direction
205 197 195 208 189 181 168 166 165 204 264 265 265 261 227 214 214 201 208 208 205 207 206 200 195 194 201 269 294 311 309 298 293 296 303 312 319 326
201 190 210 218 204 188 182 177 174 183 225 251 240 255 222 218 225 210 218 226 218 215 216 212 211 217 223 234 253 279 294 301 291 279 280 276 273 275
204 189 220 209 192 200 178 164 173 170 201 259 253 259 209 223 217 214 223 225 222 220 218 215 216 219 220 223 237 251 271 286 286 278 273 266 258 257
220 201 221 207 203 206 184 192 197 188 182 222 254 247 233 228 210 211 219 224 224 228 222 217 216 217 217 220 228 245 263 276 280 276 267 260 256 255
215 209 219 197 212 215 196 195 201 197 183 194 235 234 247 231 198 250 238 255 228 225 217 219 219 218 223 230 237 249 259 270 271 264 260 253 245 246
220 213 215 204 209 209 206 204 191 186 187 191 222 240 245 238 172 214 262 290 258 228 221 221 222 223 227 239 249 255 259 263 263 253 252 249 239 236
237 229 224 214 215 207 203 199 187 190 191 199 219 232 238 209 212 208 211 236 268 223 209 228 215 217 227 239 247 251 251 254 253 250 246 241 231 228
228 241 241 217 230 228 226 206 189 186 195 199 215 222 235 224 207 198 189 190 259 231 185 249 202 221 231 234 243 244 248 246 243 244 247 239 230 232
224 228 241 247 221 220 244 243 227 213 200 194 206 224 225 221 198 198 202 208 231 217 173 240 235 235 236 238 239 241 244 244 240 243 246 242 231 232
230 222 220 240 231 205 208 232 250 248 231 220 215 226 233 216 204 203 205 201 247 227 170 215 245 245 252 232 236 238 241 245 237 237 242 242 232 231
248 235 222 224 239 217 180 209 259 277 270 248 236 233 233 221 191 164 168 170 228 244 197 186 220 246 270 268 250 239 233 238 243 240 237 239 238 232
267 253 238 238 246 229 197 198 227 258 274 292 287 269 242 231 212 197 190 188 197 229 214 179 191 165 269 285 277 259 233 245 256 258 248 236 235 223
245 259 253 248 244 237 219 214 226 233 228 228 258 274 286 240 221 205 194 193 199 224 205 173 182 181 189 239 285 254 207 220 269 287 280 252 233 209
234 248 250 255 254 248 237 231 232 223 184 187 228 258 248 244 246 224 208 208 213 216 198 176 183 187 177 197 247 266 242 228 215 260 283 288 264 242
234 250 259 257 256 253 243 233 221 194 180 199 230 247 252 247 234 234 216 153 82 217 187 182 176 183 179 195 208 212 229 250 224 222 233 226 227 235
249 250 262 270 254 237 246 244 215 200 198 217 233 250 263 244 223 207 212 181 149 325 357 187 182 176 188 201 197 210 206 213 220 214 217 247 261 255
226 239 285 284 273 269 258 248 227 211 217 230 230 246 247 223 238 225 201 171 184 207 292 5 41 162 189 183 194 214 210 221 221 206 195 239 260 257
184 215 236 242 243 244 239 241 239 230 224 221 225 231 227 218 226 227 202 190 206 214 218 217 130 68 30 327 216 203 213 219 220 204 190 212 259 267
204 226 232 237 242 243 243 238 239 242 229 221 226 232 228 216 207 211 210 208 212 211 217 198 177 167 191 251 282 228 202 211 193 202 213 215 234 255
227 232 239 240 240 241 243 248 247 246 239 229 229 235 227 218 212 212 212 211 207 209 210 201 200 203 209 217 227 263 237 196 195 216 228 233 253 277
240 241 243 245 245 243 244 245 243 244 245 237 232 231 225 219 218 218 216 215 208 210 213 222 227 217 191 134 193 272 282 252 219 211 206 217 252 245
241 246 248 248 247 248 249 246 245 249 249 245 238 229 224 220 219 217 213 211 214 215 220 224 194 170 177 204 231 243 259 290 286 260 226 210 200 215
244 247 249 248 248 247 246 247 248 252 250 250 247 236 227 224 222 214 212 210 210 208 204 205 198 196 209 211 225 240 241 248 265 292 290 284 273 271
Height
1529 1529 1529 1529 1529 1529 1529 1529 1529 1528 1529 1529 1530 1530 1530 1529 1529 1529 1529 1529 1529 1529 1529 1529 1529 1529 1529 1529 1529 1529 1529 1529 1529 1529 1528 1528 1528 1528
1527 1527 1527 1527 1527 1527 1527 1527 1527 1527 1527 1527 1528 1528 1528 1528 1528 1528 1527 1527 1527 1527 1527 1527 1527 1527 1528 1528 1528 1527 1527 1527 1527 1527 1527 1527 1527 1527
1524 1524 1525 1525 1525 1525 1525 1525 1525 1525 1524 1525 1526 1526 1526 1525 1526 1526 1526 1525 1525 1525 1526 1526 1526 1526 1526 1526 1526 1526 1526 1525 1525 1525 1525 1524 1524 1525
1522 1522 1522 1522 1522 1522 1522 1523 1523 1523 1523 1522 1523 1523 1523 1523 1523 1523 1524 1524 1524 1524 1524 1524 1524 1524 1524 1524 1524 1524 1523 1523 1522 1522 1522 1522 1522 1522
1519 1519 1519 1519 1519 1519 1519 1520 1520 1520 1520 1520 1519 1520 1520 1521 1521 1521 1521 1521 1521 1521 1522 1522 1522 1522 1522 1521 1521 1521 1521 1520 1519 1519 1519 1519 1519 1519
1516 1516 1516 1516 1516 1516 1516 1517 1517 1517 1517 1517 1517 1517 1518 1518 1518 1518 1518 1518 1518 1518 1519 1519 1519 1519 1519 1519 1518 1518 1518 1517 1517 1516 1516 1516 1516 1516
1512 1513 1513 1513 1513 1514 1514 1514 1514 1514 1514 1514 1514 1514 1514 1514 1515 1515 1515 1515 1515 1516 1516 1516 1516 1516 1516 1516 1515 1515 1515 1514 1514 1513 1513 1513 1513 1513
1509 1509 1510 1510 1510 1510 1510 1511 1511 1511 1510 1510 1510 1510 1510 1511 1511 1512 1512 1512 1512 1513 1513 1513 1513 1513 1513 1513 1513 1512 1512 1511 1511 1511 1510 1510 1510 1510
1505 1505 1506 1506 1506 1506 1506 1507 1507 1507 1508 1507 1507 1507 1507 1507 1508 1508 1508 1508 1508 1509 1509 1509 1509 1509 1510 1510 1510 1509 1509 1508 1508 1508 1508 1508 1508 1507
1502 1502 1502 1502 1502 1502 1502 1502 1503 1503 1503 1503 1503 1503 1504 1504 1504 1504 1504 1504 1505 1505 1506 1505 1505 1506 1506 1506 1506 1506 1506 1506 1505 1505 1505 1505 1505 1505
1498 1498 1498 1498 1498 1499 1499 1498 1498 1499 1499 1500 1500 1500 1500 1500 1500 1500 1500 1500 1500 1501 1502 1502 1502 1502 1503 1503 1503 1503 1503 1503 1502 1502 1502 1502 1502 1502
1493 1494 1494 1494 1494 1495 1495 1495 1494 1494 1495 1495 1495 1495 1496 1496 1496 1497 1497 1497 1496 1497 1497 1498 1498 1499 1499 1499 1500 1500 1500 1500 1499 1499 1499 1499 1499 1498
1489 1489 1489 1490 1490 1491 1491 1491 1490 1491 1491 1491 1491 1491 1491 1491 1492 1492 1493 1493 1493 1493 1494 1494 1494 1495 1496 1496 1496 1497 1497 1496 1496 1496 1496 1496 1495 1495
1484 1485 1485 1485 1486 1486 1486 1486 1487 1487 1487 1487 1486 1486 1486 1487 1487 1488 1488 1489 1489 1490 1490 1490 1491 1491 1492 1492 1493 1493 1493 1493 1493 1493 1493 1493 1493 1492
1480 1480 1481 1481 1481 1481 1482 1482 1483 1483 1482 1482 1482 1482 1482 1483 1483 1483 1484 1484 1484 1485 1486 1486 1487 1487 1488 1488 1488 1489 1490 1490 1490 1490 1490 1489 1489 1489
1476 1476 1476 1476 1476 1477 1477 1478 1478 1478 1478 1478 1478 1478 1478 1479 1479 1479 1479 1480 1480 1481 1482 1482 1483 1484 1484 1485 1485 1485 1486 1486 1486 1487 1486 1486 1486 1485
1472 1471 1472 1472 1472 1472 1472 1473 1473 1473 1473 1473 1474 1474 1474 1474 1474 1475 1475 1475 1476 1476 1477 1478 1479 1479 1480 1481 1481 1482 1482 1482 1483 1483 1483 1482 1482 1482
1468 1467 1467 1467 1467 1467 1467 1468 1468 1468 1468 1469 1469 1469 1469 1469 1470 1470 1471 1471 1471 1472 1473 1474 1474 1475 1476 1477 1478 1477 1478 1478 1478 1479 1479 1478 1478 1478
1463 1463 1463 1463 1463 1463 1463 1463 1463 1463 1464 1464 1464 1464 1465 1465 1465 1466 1466 1467 1467 1468 1469 1470 1470 1470 1471 1471 1473 1474 1474 1473 1474 1474 1474 1474 1474 1474
1459 1459 1458 1458 1458 1458 1458 1458 1459 1459 1459 1459 1459 1459 1460 1460 1461 1461 1461 1462 1462 1463 1464 1465 1466 1466 1467 1468 1468 1469 1470 1469 1469 1469 1469 1469 1469 1470
1454 1454 1454 1454 1454 1454 1454 1454 1454 1454 1454 1454 1454 1454 1455 1455 1456 1456 1457 1457 1458 1458 1459 1460 1461 1463 1464 1464 1464 1464 1465 1466 1465 1465 1465 1465 1464 1464
1449 1450 1450 1450 1450 1450 1450 1449 1449 1449 1449 1449 1449 1449 1450 1450 1451 1451 1452 1452 1453 1454 1455 1456 1458 1458 1459 1459 1459 1460 1460 1461 1461 1461 1462 1461 1460 1459
1445 1445 1445 1445 1445 1445 1445 1444 1444 1444 1443 1444 1444 1444 1445 1445 1445 1446 1446 1447 1448 1449 1450 1451 1452 1454 1454 1455 1456 1456 1456 1456 1456 1456 1457 1457 1457 1457